Time,TemperatureF,DewpointF,PressureIn,WindDirection,WindDirectionDegrees,WindSpeedMPH,WindSpeedGustMPH,Humidity,HourlyPrecipIn,Conditions,Clouds,dailyrainin,SoftwareType,DateUTC
2013-03-07 00:00:00,34.0,-99.9,-100.00,North,-999,-999.0,-999.0,-999,0.01,,,0.43,,2013-03-07 08:00:00,
2013-03-07 00:34:00,34.0,-99.9,-100.00,North,-999,-999.0,-999.0,-999,0.01,,,0.43,,2013-03-07 08:34:00,
2013-03-07 00:45:00,34.0,-99.9,-100.00,North,-999,-999.0,-999.0,-999,0.01,,,0.43,,2013-03-07 08:45:00,
2013-03-07 00:55:00,34.0,-99.9,-100.00,North,-999,-999.0,-999.0,-999,0.01,,,0.43,,2013-03-07 08:55:00,
2013-03-07 01:00:00,34.0,-99.9,-100.00,North,-999,-999.0,-999.0,-999,0.01,,,0.44,,2013-03-07 09:00:00,
2013-03-07 01:34:00,34.0,-99.9,-100.00,North,-999,-999.0,-999.0,-999,0.01,,,0.44,,2013-03-07 09:34:00,
2013-03-07 01:44:00,34.0,-99.9,-100.00,North,-999,-999.0,-999.0,-999,0.01,,,0.44,,2013-03-07 09:44:00,
2013-03-07 02:00:00,34.0,-99.9,-100.00,North,-999,-999.0,-999.0,-999,0.01,,,0.45,,2013-03-07 10:00:00,
2013-03-07 02:34:00,34.0,-99.9,-100.00,North,-999,-999.0,-999.0,-999,0.01,,,0.45,,2013-03-07 10:34:00,
2013-03-07 02:43:00,34.0,-99.9,-100.00,North,-999,-999.0,-999.0,-999,0.01,,,0.45,,2013-03-07 10:43:00,
2013-03-07 02:54:00,34.0,-99.9,-100.00,North,-999,-999.0,-999.0,-999,0.01,,,0.45,,2013-03-07 10:54:00,
2013-03-07 03:00:00,34.0,-99.9,-100.00,North,-999,-999.0,-999.0,-999,0.01,,,0.46,,2013-03-07 11:00:00,
2013-03-07 03:34:00,34.0,-99.9,-100.00,North,-999,-999.0,-999.0,-999,0.01,,,0.46,,2013-03-07 11:34:00,
2013-03-07 03:44:00,34.0,-99.9,-100.00,North,-999,-999.0,-999.0,-999,0.01,,,0.46,,2013-03-07 11:44:00,
2013-03-07 03:55:00,34.0,-99.9,-100.00,North,-999,-999.0,-999.0,-999,0.01,,,0.46,,2013-03-07 11:55:00,
2013-03-07 04:00:00,34.0,-99.9,-100.00,North,-999,-999.0,-999.0,-999,0.00,,,0.46,,2013-03-07 12:00:00,
2013-03-07 04:34:00,34.0,-99.9,-100.00,North,-999,-999.0,-999.0,-999,0.00,,,0.46,,2013-03-07 12:34:00,
2013-03-07 04:43:00,34.0,-99.9,-100.00,North,-999,-999.0,-999.0,-999,0.00,,,0.46,,2013-03-07 12:43:00,
2013-03-07 04:53:00,34.0,-99.9,-100.00,North,-999,-999.0,-999.0,-999,0.00,,,0.46,,2013-03-07 12:53:00,
2013-03-07 06:00:00,34.0,-99.9,-100.00,North,-999,-999.0,-999.0,-999,0.00,,,0.47,,2013-03-07 14:00:00,
2013-03-07 06:34:00,34.0,-99.9,-100.00,North,-999,-999.0,-999.0,-999,0.00,,,0.47,,2013-03-07 14:34:00,
2013-03-07 06:43:00,34.0,-99.9,-100.00,North,-999,-999.0,-999.0,-999,0.00,,,0.47,,2013-03-07 14:43:00,
2013-03-07 06:54:00,34.0,-99.9,-100.00,North,-999,-999.0,-999.0,-999,0.00,,,0.47,,2013-03-07 14:54:00,
2013-03-07 07:00:00,34.0,-99.9,-100.00,North,-999,-999.0,-999.0,-999,0.00,,,0.47,,2013-03-07 15:00:00,
2013-03-07 07:33:00,34.0,-99.9,-100.00,North,-999,-999.0,-999.0,-999,0.00,,,0.47,,2013-03-07 15:33:00,
2013-03-07 07:43:00,34.0,-99.9,-100.00,North,-999,-999.0,-999.0,-999,0.00,,,0.47,,2013-03-07 15:43:00,
2013-03-07 07:54:00,34.0,-99.9,-100.00,North,-999,-999.0,-999.0,-999,0.00,,,0.47,,2013-03-07 15:54:00,
2013-03-07 08:00:00,35.0,-99.9,-100.00,North,-999,-999.0,-999.0,-999,0.00,,,0.47,,2013-03-07 16:00:00,
2013-03-07 08:33:00,35.0,-99.9,-100.00,North,-999,-999.0,-999.0,-999,0.00,,,0.47,,2013-03-07 16:33:00,
2013-03-07 08:44:00,35.0,-99.9,-100.00,North,-999,-999.0,-999.0,-999,0.00,,,0.47,,2013-03-07 16:44:00,
2013-03-07 08:54:00,35.0,-99.9,-100.00,North,-999,-999.0,-999.0,-999,0.00,,,0.47,,2013-03-07 16:54:00,
2013-03-07 09:00:00,37.0,-99.9,-100.00,North,-999,-999.0,-999.0,-999,0.00,,,0.47,,2013-03-07 17:00:00,
2013-03-07 09:34:00,37.0,-99.9,-100.00,North,-999,-999.0,-999.0,-999,0.00,,,0.47,,2013-03-07 17:34:00,
2013-03-07 09:44:00,37.0,-99.9,-100.00,North,-999,-999.0,-999.0,-999,0.00,,,0.47,,2013-03-07 17:44:00,
2013-03-07 09:55:00,37.0,-99.9,-100.00,North,-999,-999.0,-999.0,-999,0.00,,,0.47,,2013-03-07 17:55:00,
2013-03-07 10:00:00,44.0,-99.9,-100.00,North,-999,-999.0,-999.0,-999,0.00,,,0.47,,2013-03-07 18:00:00,
2013-03-07 10:33:00,44.0,-99.9,-100.00,North,-999,-999.0,-999.0,-999,0.00,,,0.47,,2013-03-07 18:33:00,
2013-03-07 10:43:00,44.0,-99.9,-100.00,North,-999,-999.0,-999.0,-999,0.00,,,0.47,,2013-03-07 18:43:00,
2013-03-07 10:53:00,44.0,-99.9,-100.00,North,-999,-999.0,-999.0,-999,0.00,,,0.47,,2013-03-07 18:53:00,
2013-03-07 11:00:00,48.0,-99.9,-100.00,North,-999,-999.0,-999.0,-999,0.00,,,0.47,,2013-03-07 19:00:00,
2013-03-07 11:36:00,48.0,-99.9,-100.00,North,-999,-999.0,-999.0,-999,0.00,,,0.47,,2013-03-07 19:36:00,
2013-03-07 11:44:00,48.0,-99.9,-100.00,North,-999,-999.0,-999.0,-999,0.00,,,0.47,,2013-03-07 19:44:00,
2013-03-07 11:54:00,48.0,-99.9,-100.00,North,-999,-999.0,-999.0,-999,0.00,,,0.47,,2013-03-07 19:54:00,
2013-03-07 12:00:00,47.0,-99.9,-100.00,North,-999,-999.0,-999.0,-999,0.00,,,0.46,,2013-03-07 20:00:00,
2013-03-07 12:34:00,47.0,-99.9,-100.00,North,-999,-999.0,-999.0,-999,0.00,,,0.46,,2013-03-07 20:34:00,
2013-03-07 12:44:00,47.0,-99.9,-100.00,North,-999,-999.0,-999.0,-999,0.00,,,0.46,,2013-03-07 20:44:00,
2013-03-07 12:55:00,47.0,-99.9,-100.00,North,-999,-999.0,-999.0,-999,0.00,,,0.46,,2013-03-07 20:55:00,
2013-03-07 13:00:00,48.0,-99.9,-100.00,North,-999,-999.0,-999.0,-999,0.00,,,0.44,,2013-03-07 21:00:00,
2013-03-07 13:34:00,48.0,-99.9,-100.00,North,-999,-999.0,-999.0,-999,0.00,,,0.44,,2013-03-07 21:34:00,
2013-03-07 13:43:00,48.0,-99.9,-100.00,North,-999,-999.0,-999.0,-999,0.00,,,0.44,,2013-03-07 21:43:00,
2013-03-07 13:53:00,48.0,-99.9,-100.00,North,-999,-999.0,-999.0,-999,0.00,,,0.44,,2013-03-07 21:53:00,
2013-03-07 14:00:00,51.0,-99.9,-100.00,North,-999,-999.0,-999.0,-999,0.00,,,0.41,,2013-03-07 22:00:00,
2013-03-07 14:34:00,51.0,-99.9,-100.00,North,-999,-999.0,-999.0,-999,0.00,,,0.41,,2013-03-07 22:34:00,
2013-03-07 14:44:00,51.0,-99.9,-100.00,North,-999,-999.0,-999.0,-999,0.00,,,0.41,,2013-03-07 22:44:00,
2013-03-07 14:55:00,51.0,-99.9,-100.00,North,-999,-999.0,-999.0,-999,0.00,,,0.41,,2013-03-07 22:55:00,
2013-03-07 15:00:00,48.0,-99.9,-100.00,North,-999,-999.0,-999.0,-999,0.00,,,0.40,,2013-03-07 23:00:00,
2013-03-07 15:35:00,48.0,-99.9,-100.00,North,-999,-999.0,-999.0,-999,0.00,,,0.40,,2013-03-07 23:35:00,
2013-03-07 15:44:00,48.0,-99.9,-100.00,North,-999,-999.0,-999.0,-999,0.00,,,0.40,,2013-03-07 23:44:00,
2013-03-07 15:54:00,48.0,-99.9,-100.00,North,-999,-999.0,-999.0,-999,0.00,,,0.40,,2013-03-07 23:54:00,
2013-03-07 16:00:00,45.0,-99.9,-100.00,North,-999,-999.0,-999.0,-999,0.00,,,0.39,,2013-03-08 00:00:00,
2013-03-07 16:35:00,45.0,-99.9,-100.00,North,-999,-999.0,-999.0,-999,0.00,,,0.39,,2013-03-08 00:35:00,
2013-03-07 16:44:00,45.0,-99.9,-100.00,North,-999,-999.0,-999.0,-999,0.00,,,0.39,,2013-03-08 00:44:00,
2013-03-07 16:54:00,45.0,-99.9,-100.00,North,-999,-999.0,-999.0,-999,0.00,,,0.39,,2013-03-08 00:54:00,
2013-03-07 17:00:00,45.0,-99.9,-100.00,North,-999,-999.0,-999.0,-999,0.00,,,0.36,,2013-03-08 01:00:00,
2013-03-07 17:33:00,45.0,-99.9,-100.00,North,-999,-999.0,-999.0,-999,0.00,,,0.36,,2013-03-08 01:33:00,
2013-03-07 17:42:00,45.0,-99.9,-100.00,North,-999,-999.0,-999.0,-999,0.00,,,0.36,,2013-03-08 01:42:00,
2013-03-07 17:52:00,45.0,-99.9,-100.00,North,-999,-999.0,-999.0,-999,0.00,,,0.36,,2013-03-08 01:52:00,
2013-03-07 18:00:00,40.0,-99.9,-100.00,North,-999,-999.0,-999.0,-999,0.00,,,0.30,,2013-03-08 02:00:00,
2013-03-07 18:42:00,40.0,-99.9,-100.00,North,-999,-999.0,-999.0,-999,0.00,,,0.30,,2013-03-08 02:42:00,
2013-03-07 18:53:00,40.0,-99.9,-100.00,North,-999,-999.0,-999.0,-999,0.00,,,0.30,,2013-03-08 02:53:00,
2013-03-07 19:00:00,34.0,-99.9,-100.00,North,-999,-999.0,-999.0,-999,0.00,,,0.23,,2013-03-08 03:00:00,
2013-03-07 19:33:00,34.0,-99.9,-100.00,North,-999,-999.0,-999.0,-999,0.00,,,0.23,,2013-03-08 03:33:00,
2013-03-07 19:43:00,34.0,-99.9,-100.00,North,-999,-999.0,-999.0,-999,0.00,,,0.23,,2013-03-08 03:43:00,
2013-03-07 19:53:00,34.0,-99.9,-100.00,North,-999,-999.0,-999.0,-999,0.00,,,0.23,,2013-03-08 03:53:00,
2013-03-07 21:33:00,28.0,-99.9,-100.00,North,-999,-999.0,-999.0,-999,0.00,,,0.14,,2013-03-08 05:33:00,
2013-03-07 22:00:00,27.0,-99.9,-100.00,North,-999,-999.0,-999.0,-999,0.00,,,0.08,,2013-03-08 06:00:00,
2013-03-07 22:32:00,27.0,-99.9,-100.00,North,-999,-999.0,-999.0,-999,0.00,,,0.08,,2013-03-08 06:32:00,
2013-03-07 22:42:00,27.0,-99.9,-100.00,North,-999,-999.0,-999.0,-999,0.00,,,0.08,,2013-03-08 06:42:00,
2013-03-07 22:52:00,27.0,-99.9,-100.00,North,-999,-999.0,-999.0,-999,0.00,,,0.08,,2013-03-08 06:52:00,
2013-03-07 23:32:00,25.0,-99.9,-100.00,North,-999,-999.0,-999.0,-999,0.00,,,0.05,,2013-03-08 07:32:00,